Cloud_Cover
2 0 9 100 100 100 100 49 10 72 56 0 0 0 1 0 5 100 99 34 90 97
2 4 5 0 5 7 4 4 5 99 30 33 6 5 5 3 10 100 90 66 43 80
5 0 0 0 0 5 0 1 43 87 90 5 5 67 47 11 32 18 100 90 90 10
3 2 0 2 6 1 4 5 4 4 69 30 5 2 8 7 26 0 17 5 100 89
3 5 3 0 5 12 82 5 5 5 4 5 36 26 50 5 0 5 0 0 0 4
0 0 3 0 0 4 4 5 5 6 8 5 44 5 50 16 15 30 5 0 0 0
100 76 13 0 0 0 2 0 2 4 33 82 65 18 22 44 96 99 71 17 81 8
100 100 95 5 3 0 0 0 4 5 5 36 11 98 100 100 100 100 100 100 90 64
34 100 100 100 92 9 5 5 4 8 29 48 51 100 100 100 100 100 100 100 100 94
100 67 100 100 100 100 100 100 100 99 98 96 50 98 100 98 100 100 100 100 100 100
100 100 100 100 100 100 100 100 100 100 100 100 100 60 99 86 94 100 100 100 100 100
100 100 100 100 100 100 100 100 100 100 100 100 100 100 100 100 100 100 99 92 100 100
100 100 100 100 100 100 100 100 100 100 100 100 100 100 100 100 100 100 100 100 100 100
100 100 100 100 100 100 100 100 100 100 100 100 100 100 100 100 100 100 100 100 100 100